Time,TemperatureF,DewpointF,PressureIn,WindDirection,WindDirectionDegrees,WindSpeedMPH,WindSpeedGustMPH,Humidity,HourlyPrecipIn,Conditions,Clouds,dailyrainin,SoftwareType,DateUTC
2013-05-14 00:02:00,56.5,54.9,30.16,SE,145,0.0,0.0,94,0.00,,,0.00,meteohub,2013-05-14 04:02:00,
2013-05-14 00:07:00,56.5,54.9,30.16,SE,145,0.0,0.0,94,0.00,,,0.00,meteohub,2013-05-14 04:07:00,
2013-05-14 00:12:00,56.1,54.1,30.16,SE,145,0.0,0.0,93,0.00,,,0.00,meteohub,2013-05-14 04:12:00,
2013-05-14 00:17:00,55.9,54.0,30.16,SE,145,0.0,0.0,93,0.00,,,0.00,meteohub,2013-05-14 04:17:00,
2013-05-14 00:22:00,55.8,53.8,30.16,SE,145,0.0,0.0,93,0.00,,,0.00,meteohub,2013-05-14 04:22:00,
2013-05-14 00:27:00,55.6,54.0,30.16,SE,145,0.0,0.0,94,0.00,,,0.00,meteohub,2013-05-14 04:27:00,
2013-05-14 00:32:00,55.6,54.1,30.17,SE,145,0.0,1.0,95,0.00,,,0.00,meteohub,2013-05-14 04:32:00,
2013-05-14 00:37:00,55.6,54.0,30.17,SE,145,0.0,1.0,94,0.00,,,0.00,meteohub,2013-05-14 04:37:00,
2013-05-14 00:42:00,55.4,53.8,30.16,SE,145,0.0,1.0,94,0.00,,,0.00,meteohub,2013-05-14 04:42:00,
2013-05-14 00:47:00,55.2,53.6,30.16,SE,145,0.0,0.0,94,0.00,,,0.00,meteohub,2013-05-14 04:47:00,
2013-05-14 00:52:00,55.2,53.8,30.17,SE,145,0.0,0.0,95,0.00,,,0.00,meteohub,2013-05-14 04:52:00,
2013-05-14 00:57:00,55.0,53.6,30.17,SE,145,0.0,0.0,95,0.00,,,0.00,meteohub,2013-05-14 04:57:00,
2013-05-14 01:02:00,54.9,53.4,30.17,SE,145,0.0,0.0,95,0.00,,,0.00,meteohub,2013-05-14 05:02:00,
2013-05-14 01:07:00,54.7,53.1,30.17,SE,145,0.0,0.0,94,0.00,,,0.00,meteohub,2013-05-14 05:07:00,
2013-05-14 01:12:00,54.5,52.9,30.17,SE,145,0.0,0.0,94,0.00,,,0.00,meteohub,2013-05-14 05:12:00,
2013-05-14 01:17:00,54.1,52.5,30.17,SE,145,0.0,0.0,94,0.00,,,0.00,meteohub,2013-05-14 05:17:00,
2013-05-14 01:22:00,54.0,52.3,30.17,SE,145,0.0,0.0,94,0.00,,,0.00,meteohub,2013-05-14 05:22:00,
2013-05-14 01:27:00,54.1,52.7,30.17,SE,145,0.0,0.0,95,0.00,,,0.00,meteohub,2013-05-14 05:27:00,
2013-05-14 01:32:00,54.1,52.7,30.17,SE,145,0.0,0.0,95,0.00,,,0.00,meteohub,2013-05-14 05:32:00,
2013-05-14 01:37:00,54.0,52.5,30.17,SE,145,0.0,0.0,95,0.00,,,0.00,meteohub,2013-05-14 05:37:00,
2013-05-14 01:42:00,53.8,52.3,30.17,SE,145,0.0,0.0,95,0.00,,,0.00,meteohub,2013-05-14 05:42:00,
2013-05-14 01:47:00,53.6,52.2,30.17,SE,145,0.0,0.0,95,0.00,,,0.00,meteohub,2013-05-14 05:47:00,
2013-05-14 01:52:00,53.4,52.0,30.17,SE,145,0.0,0.0,95,0.00,,,0.00,meteohub,2013-05-14 05:52:00,
2013-05-14 01:57:00,53.2,51.8,30.17,SE,145,0.0,0.0,95,0.00,,,0.00,meteohub,2013-05-14 05:57:00,
2013-05-14 02:02:00,53.1,51.4,30.17,SE,145,0.0,0.0,94,0.00,,,0.00,meteohub,2013-05-14 06:02:00,
2013-05-14 02:07:00,52.9,51.3,30.17,SE,145,0.0,0.0,94,0.00,,,0.00,meteohub,2013-05-14 06:07:00,
2013-05-14 02:12:00,52.7,51.1,30.17,SE,145,0.0,0.0,94,0.00,,,0.00,meteohub,2013-05-14 06:12:00,
2013-05-14 02:17:00,52.5,51.1,30.17,SE,145,0.0,0.0,95,0.00,,,0.00,meteohub,2013-05-14 06:17:00,
2013-05-14 02:22:00,52.5,51.1,30.17,SE,145,0.0,0.0,95,0.00,,,0.00,meteohub,2013-05-14 06:22:00,
2013-05-14 02:27:00,52.5,51.1,30.17,SE,145,0.0,1.0,95,0.00,,,0.00,meteohub,2013-05-14 06:27:00,
2013-05-14 02:32:00,52.7,51.3,30.17,SE,145,0.0,2.0,95,0.00,,,0.00,meteohub,2013-05-14 06:32:00,
2013-05-14 02:37:00,52.5,51.1,30.17,SE,145,0.0,2.0,95,0.00,,,0.00,meteohub,2013-05-14 06:37:00,
2013-05-14 02:42:00,52.5,50.9,30.16,SE,145,1.0,3.0,94,0.00,,,0.00,meteohub,2013-05-14 06:42:00,
2013-05-14 02:47:00,52.5,50.5,30.16,SE,145,2.0,3.0,93,0.00,,,0.00,meteohub,2013-05-14 06:47:00,
2013-05-14 02:52:00,52.3,50.0,30.16,SE,145,1.0,3.0,92,0.00,,,0.00,meteohub,2013-05-14 06:52:00,
2013-05-14 02:57:00,52.3,49.5,30.16,SE,145,1.0,3.0,90,0.00,,,0.00,meteohub,2013-05-14 06:57:00,
2013-05-14 03:02:00,52.2,49.1,30.17,SE,145,1.0,3.0,89,0.00,,,0.00,meteohub,2013-05-14 07:02:00,
2013-05-14 03:07:00,52.2,48.4,30.17,SE,145,1.0,2.0,87,0.00,,,0.00,meteohub,2013-05-14 07:07:00,
2013-05-14 03:12:00,52.0,47.8,30.17,SE,145,0.0,2.0,86,0.00,,,0.00,meteohub,2013-05-14 07:12:00,
2013-05-14 03:17:00,52.0,47.8,30.17,SE,145,0.0,2.0,86,0.00,,,0.00,meteohub,2013-05-14 07:17:00,
2013-05-14 03:22:00,51.6,47.3,30.17,SE,145,0.0,2.0,85,0.00,,,0.00,meteohub,2013-05-14 07:22:00,
2013-05-14 03:27:00,51.4,47.5,30.16,SE,145,0.0,2.0,86,0.00,,,0.00,meteohub,2013-05-14 07:27:00,
2013-05-14 03:32:00,51.4,47.7,30.17,SE,145,0.0,2.0,87,0.00,,,0.00,meteohub,2013-05-14 07:32:00,
2013-05-14 03:37:00,51.4,47.5,30.17,SE,145,0.0,1.0,86,0.00,,,0.00,meteohub,2013-05-14 07:37:00,
2013-05-14 03:42:00,51.4,47.1,30.17,SE,145,0.0,2.0,85,0.00,,,0.00,meteohub,2013-05-14 07:42:00,
2013-05-14 03:47:00,51.4,46.8,30.17,SE,145,1.0,2.0,84,0.00,,,0.00,meteohub,2013-05-14 07:47:00,
2013-05-14 03:52:00,51.4,46.8,30.17,SE,145,0.0,2.0,84,0.00,,,0.00,meteohub,2013-05-14 07:52:00,
2013-05-14 03:57:00,51.4,46.8,30.17,SE,145,0.0,2.0,84,0.00,,,0.00,meteohub,2013-05-14 07:57:00,
2013-05-14 04:02:00,51.6,47.3,30.17,SE,145,0.0,2.0,85,0.00,,,0.00,meteohub,2013-05-14 08:02:00,
2013-05-14 04:07:00,51.6,46.9,30.17,SE,145,1.0,2.0,84,0.00,,,0.00,meteohub,2013-05-14 08:07:00,
2013-05-14 04:12:00,51.8,47.1,30.17,SE,145,2.0,2.0,84,0.00,,,0.00,meteohub,2013-05-14 08:12:00,
2013-05-14 04:17:00,51.8,46.8,30.17,SE,145,0.0,3.0,83,0.00,,,0.00,meteohub,2013-05-14 08:17:00,
2013-05-14 04:22:00,52.0,46.6,30.17,SE,145,1.0,3.0,82,0.00,,,0.00,meteohub,2013-05-14 08:22:00,
2013-05-14 04:27:00,52.0,46.6,30.17,SE,145,1.0,2.0,82,0.00,,,0.00,meteohub,2013-05-14 08:27:00,
2013-05-14 04:32:00,51.8,46.2,30.17,SE,145,2.0,3.0,81,0.00,,,0.00,meteohub,2013-05-14 08:32:00,
2013-05-14 04:37:00,52.0,46.6,30.17,SE,145,1.0,3.0,82,0.00,,,0.00,meteohub,2013-05-14 08:37:00,
2013-05-14 04:42:00,52.0,46.9,30.17,SE,145,1.0,3.0,83,0.00,,,0.00,meteohub,2013-05-14 08:42:00,
2013-05-14 04:47:00,52.0,46.9,30.17,SE,145,0.0,2.0,83,0.00,,,0.00,meteohub,2013-05-14 08:47:00,
2013-05-14 04:52:00,52.0,46.9,30.17,SE,145,0.0,2.0,83,0.00,,,0.00,meteohub,2013-05-14 08:52:00,
2013-05-14 04:57:00,51.6,46.9,30.17,SE,145,2.0,2.0,84,0.00,,,0.00,meteohub,2013-05-14 08:57:00,
2013-05-14 05:02:00,51.4,46.8,30.17,SE,145,0.0,2.0,84,0.00,,,0.00,meteohub,2013-05-14 09:02:00,
2013-05-14 05:07:00,51.1,46.4,30.17,SE,145,0.0,2.0,84,0.00,,,0.00,meteohub,2013-05-14 09:07:00,
2013-05-14 05:12:00,50.7,46.4,30.17,SE,145,0.0,2.0,85,0.00,,,0.00,meteohub,2013-05-14 09:12:00,
2013-05-14 05:17:00,50.4,46.4,30.17,SE,145,0.0,1.0,86,0.00,,,0.00,meteohub,2013-05-14 09:17:00,
2013-05-14 05:22:00,50.2,46.2,30.17,SE,145,0.0,1.0,86,0.00,,,0.00,meteohub,2013-05-14 09:22:00,
2013-05-14 05:27:00,49.8,46.0,30.17,SE,145,0.0,1.0,87,0.00,,,0.00,meteohub,2013-05-14 09:27:00,
2013-05-14 05:32:00,49.6,45.9,30.17,SE,145,0.0,1.0,87,0.00,,,0.00,meteohub,2013-05-14 09:32:00,
2013-05-14 05:37:00,49.5,46.0,30.17,SE,145,1.0,1.0,88,0.00,,,0.00,meteohub,2013-05-14 09:37:00,
2013-05-14 05:42:00,49.1,46.0,30.17,SE,145,0.0,1.0,89,0.00,,,0.00,meteohub,2013-05-14 09:42:00,
2013-05-14 05:47:00,48.9,45.9,30.17,SE,145,0.0,1.0,89,0.00,,,0.00,meteohub,2013-05-14 09:47:00,
2013-05-14 05:52:00,48.9,46.0,30.17,SE,145,0.0,1.0,90,0.00,,,0.00,meteohub,2013-05-14 09:52:00,
2013-05-14 05:57:00,48.9,46.0,30.17,SE,145,0.0,2.0,90,0.00,,,0.00,meteohub,2013-05-14 09:57:00,
2013-05-14 06:02:00,48.9,45.9,30.17,SE,145,0.0,2.0,89,0.00,,,0.00,meteohub,2013-05-14 10:02:00,
2013-05-14 06:07:00,48.9,45.9,30.17,SE,145,1.0,2.0,89,0.00,,,0.00,meteohub,2013-05-14 10:07:00,
2013-05-14 06:12:00,48.9,45.9,30.18,SE,145,1.0,2.0,89,0.00,,,0.00,meteohub,2013-05-14 10:12:00,
2013-05-14 06:17:00,48.9,46.0,30.18,SE,145,0.0,2.0,90,0.00,,,0.00,meteohub,2013-05-14 10:17:00,
2013-05-14 06:22:00,48.7,45.7,30.18,SE,145,0.0,2.0,89,0.00,,,0.00,meteohub,2013-05-14 10:22:00,
2013-05-14 06:27:00,48.7,45.7,30.18,SE,145,0.0,2.0,89,0.00,,,0.00,meteohub,2013-05-14 10:27:00,
2013-05-14 06:32:00,48.7,45.7,30.18,SE,145,0.0,2.0,89,0.00,,,0.00,meteohub,2013-05-14 10:32:00,
2013-05-14 06:37:00,48.7,45.9,30.18,SE,145,0.0,2.0,90,0.00,,,0.00,meteohub,2013-05-14 10:37:00,
2013-05-14 06:42:00,48.7,45.9,30.19,SE,145,1.0,2.0,90,0.00,,,0.00,meteohub,2013-05-14 10:42:00,
2013-05-14 06:47:00,48.9,46.0,30.19,SE,145,1.0,2.0,90,0.00,,,0.00,meteohub,2013-05-14 10:47:00,
2013-05-14 06:52:00,49.3,46.4,30.19,SE,145,1.0,2.0,90,0.00,,,0.00,meteohub,2013-05-14 10:52:00,
2013-05-14 06:57:00,49.5,46.9,30.19,SE,145,2.0,3.0,91,0.00,,,0.00,meteohub,2013-05-14 10:57:00,
2013-05-14 07:02:00,49.6,47.1,30.19,SE,145,1.0,3.0,91,0.00,,,0.00,meteohub,2013-05-14 11:02:00,
2013-05-14 07:07:00,50.0,47.5,30.20,SE,145,0.0,3.0,91,0.00,,,0.00,meteohub,2013-05-14 11:07:00,
2013-05-14 07:12:00,50.5,48.0,30.20,SE,145,2.0,3.0,91,0.00,,,0.00,meteohub,2013-05-14 11:12:00,
2013-05-14 07:17:00,50.9,48.0,30.20,NE,49,1.0,2.0,90,0.00,,,0.00,meteohub,2013-05-14 11:17:00,
2013-05-14 07:22:00,51.3,48.2,30.20,North,355,2.0,3.0,89,0.00,,,0.00,meteohub,2013-05-14 11:22:00,
2013-05-14 07:27:00,51.8,48.0,30.20,North,355,2.0,5.0,87,0.00,,,0.00,meteohub,2013-05-14 11:27:00,
2013-05-14 07:32:00,52.3,48.2,30.21,North,5,0.0,5.0,86,0.00,,,0.00,meteohub,2013-05-14 11:32:00,
2013-05-14 07:37:00,52.9,47.8,30.21,WNW,284,2.0,5.0,83,0.00,,,0.00,meteohub,2013-05-14 11:37:00,
2013-05-14 07:42:00,53.8,48.0,30.21,NW,325,2.0,4.0,81,0.00,,,0.00,meteohub,2013-05-14 11:42:00,
2013-05-14 07:47:00,54.7,48.0,30.21,NNW,334,4.0,8.0,78,0.00,,,0.00,meteohub,2013-05-14 11:47:00,
2013-05-14 07:52:00,55.2,47.8,30.21,NNW,334,0.0,8.0,76,0.00,,,0.00,meteohub,2013-05-14 11:52:00,
2013-05-14 08:02:00,56.7,48.4,30.21,NNW,333,4.0,8.0,74,0.00,,,0.00,meteohub,2013-05-14 12:02:00,
2013-05-14 08:07:00,57.4,48.4,30.21,NW,311,1.0,8.0,72,0.00,,,0.00,meteohub,2013-05-14 12:07:00,
2013-05-14 08:12:00,57.9,48.6,30.21,NW,323,4.0,8.0,71,0.00,,,0.00,meteohub,2013-05-14 12:12:00,
2013-05-14 08:17:00,58.6,48.9,30.22,NNE,13,0.0,8.0,70,0.00,,,0.00,meteohub,2013-05-14 12:17:00,
2013-05-14 08:22:00,59.0,48.9,30.22,NNW,338,4.0,8.0,69,0.00,,,0.00,meteohub,2013-05-14 12:22:00,
2013-05-14 08:27:00,59.5,49.3,30.22,North,5,1.0,8.0,69,0.00,,,0.00,meteohub,2013-05-14 12:27:00,
2013-05-14 08:32:00,60.3,49.3,30.22,NNW,333,0.0,8.0,67,0.00,,,0.00,meteohub,2013-05-14 12:32:00,
2013-05-14 08:37:00,60.6,49.6,30.22,NNE,13,7.0,8.0,67,0.00,,,0.00,meteohub,2013-05-14 12:37:00,
2013-05-14 08:42:00,61.3,49.8,30.22,North,5,4.0,9.0,66,0.00,,,0.00,meteohub,2013-05-14 12:42:00,
2013-05-14 08:47:00,61.9,50.4,30.22,North,5,3.0,9.0,66,0.00,,,0.00,meteohub,2013-05-14 12:47:00,
2013-05-14 08:52:00,62.2,50.4,30.22,North,5,3.0,9.0,65,0.00,,,0.00,meteohub,2013-05-14 12:52:00,
2013-05-14 08:57:00,63.0,51.4,30.22,NNW,331,0.0,7.0,66,0.00,,,0.00,meteohub,2013-05-14 12:57:00,
2013-05-14 09:02:00,63.7,50.9,30.22,NW,319,1.0,8.0,63,0.00,,,0.00,meteohub,2013-05-14 13:02:00,
2013-05-14 09:07:00,64.4,51.6,30.22,NNW,333,2.0,8.0,63,0.00,,,0.00,meteohub,2013-05-14 13:07:00,
2013-05-14 09:12:00,65.1,51.3,30.22,NNE,15,3.0,8.0,61,0.00,,,0.00,meteohub,2013-05-14 13:12:00,
2013-05-14 09:17:00,66.0,50.4,30.23,North,355,3.0,9.0,57,0.00,,,0.00,meteohub,2013-05-14 13:17:00,
2013-05-14 09:22:00,67.1,50.9,30.23,North,355,0.0,9.0,56,0.00,,,0.00,meteohub,2013-05-14 13:22:00,
2013-05-14 09:27:00,67.8,50.0,30.23,North,355,6.0,9.0,53,0.00,,,0.00,meteohub,2013-05-14 13:27:00,
2013-05-14 09:32:00,68.5,50.2,30.23,NNE,26,0.0,9.0,52,0.00,,,0.00,meteohub,2013-05-14 13:32:00,
2013-05-14 09:37:00,69.3,47.7,30.23,NNE,23,0.0,9.0,46,0.00,,,0.00,meteohub,2013-05-14 13:37:00,
2013-05-14 09:47:00,70.3,47.5,30.23,NNE,28,9.0,9.0,44,0.00,,,0.00,meteohub,2013-05-14 13:47:00,
2013-05-14 09:57:00,71.2,46.9,30.23,NE,44,0.0,9.0,42,0.00,,,0.00,meteohub,2013-05-14 13:57:00,
2013-05-14 10:02:00,71.8,47.5,30.23,NNE,15,2.0,9.0,42,0.00,,,0.00,meteohub,2013-05-14 14:02:00,
2013-05-14 10:07:00,72.1,45.9,30.23,NNE,30,1.0,9.0,39,0.00,,,0.00,meteohub,2013-05-14 14:07:00,
2013-05-14 10:12:00,72.9,43.5,30.24,NE,53,6.0,9.0,35,0.00,,,0.00,meteohub,2013-05-14 14:12:00,
2013-05-14 10:17:00,73.0,45.1,30.24,NE,44,0.0,10.0,37,0.00,,,0.00,meteohub,2013-05-14 14:17:00,
2013-05-14 10:22:00,73.2,48.7,30.24,NE,44,0.0,10.0,42,0.00,,,0.00,meteohub,2013-05-14 14:22:00,
2013-05-14 10:27:00,73.9,45.3,30.24,NNE,28,8.0,10.0,36,0.00,,,0.00,meteohub,2013-05-14 14:27:00,
2013-05-14 10:32:00,73.8,44.4,30.24,NNE,19,3.0,11.0,35,0.00,,,0.00,meteohub,2013-05-14 14:32:00,
2013-05-14 10:37:00,73.9,44.6,30.24,NE,44,2.0,11.0,35,0.00,,,0.00,meteohub,2013-05-14 14:37:00,
2013-05-14 10:42:00,74.1,43.2,30.24,North,5,6.0,11.0,33,0.00,,,0.00,meteohub,2013-05-14 14:42:00,
2013-05-14 10:47:00,74.1,40.6,30.25,NNE,20,4.0,12.0,30,0.00,,,0.00,meteohub,2013-05-14 14:47:00,
2013-05-14 10:52:00,74.5,40.1,30.25,NE,37,5.0,12.0,29,0.00,,,0.00,meteohub,2013-05-14 14:52:00,
2013-05-14 11:02:00,75.4,40.1,30.25,North,0,5.0,10.0,28,0.00,,,0.00,meteohub,2013-05-14 15:02:00,
2013-05-14 11:07:00,75.6,40.1,30.25,NNW,347,4.0,10.0,28,0.00,,,0.00,meteohub,2013-05-14 15:07:00,
2013-05-14 11:12:00,75.7,47.7,30.25,NE,37,3.0,10.0,37,0.00,,,0.00,meteohub,2013-05-14 15:12:00,
2013-05-14 11:17:00,76.3,43.3,30.25,NE,46,2.0,9.0,31,0.00,,,0.00,meteohub,2013-05-14 15:17:00,
2013-05-14 11:22:00,76.5,42.8,30.25,West,279,3.0,9.0,30,0.00,,,0.00,meteohub,2013-05-14 15:22:00,
2013-05-14 11:27:00,76.8,43.9,30.25,NE,34,0.0,9.0,31,0.00,,,0.00,meteohub,2013-05-14 15:27:00,
2013-05-14 11:32:00,77.5,46.9,30.25,ENE,58,1.0,9.0,34,0.00,,,0.00,meteohub,2013-05-14 15:32:00,
2013-05-14 11:37:00,77.5,44.6,30.25,SE,136,5.0,5.0,31,0.00,,,0.00,meteohub,2013-05-14 15:37:00,
2013-05-14 11:42:00,77.4,40.8,30.25,NNE,26,3.0,7.0,27,0.00,,,0.00,meteohub,2013-05-14 15:42:00,
2013-05-14 11:47:00,77.4,44.4,30.25,SSE,150,3.0,7.0,31,0.00,,,0.00,meteohub,2013-05-14 15:47:00,
2013-05-14 11:52:00,77.5,46.2,30.25,East,91,2.0,8.0,33,0.00,,,0.00,meteohub,2013-05-14 15:52:00,
2013-05-14 11:57:00,78.1,44.1,30.25,East,91,3.0,8.0,30,0.00,,,0.00,meteohub,2013-05-14 15:57:00,
2013-05-14 12:02:00,78.1,47.5,30.25,SE,141,2.0,8.0,34,0.00,,,0.00,meteohub,2013-05-14 16:02:00,
2013-05-14 12:07:00,78.3,48.4,30.25,ESE,105,0.0,8.0,35,0.00,,,0.00,meteohub,2013-05-14 16:07:00,
2013-05-14 12:12:00,78.3,43.3,30.25,East,93,2.0,9.0,29,0.00,,,0.00,meteohub,2013-05-14 16:12:00,
2013-05-14 12:17:00,78.1,43.2,30.24,ENE,74,3.0,9.0,29,0.00,,,0.00,meteohub,2013-05-14 16:17:00,
2013-05-14 12:22:00,78.1,47.5,30.24,SSE,150,0.0,10.0,34,0.00,,,0.00,meteohub,2013-05-14 16:22:00,
2013-05-14 12:27:00,77.7,43.0,30.25,NE,38,3.0,10.0,29,0.00,,,0.00,meteohub,2013-05-14 16:27:00,
2013-05-14 12:32:00,77.5,46.2,30.25,NE,55,6.0,10.0,33,0.00,,,0.00,meteohub,2013-05-14 16:32:00,
2013-05-14 12:37:00,77.5,50.5,30.25,ESE,119,3.0,10.0,39,0.00,,,0.00,meteohub,2013-05-14 16:37:00,
2013-05-14 12:42:00,77.5,47.7,30.25,ENE,71,0.0,10.0,35,0.00,,,0.00,meteohub,2013-05-14 16:42:00,
2013-05-14 12:47:00,77.7,52.9,30.24,NNE,32,3.0,10.0,42,0.00,,,0.00,meteohub,2013-05-14 16:47:00,
2013-05-14 12:57:00,77.9,48.0,30.25,NE,53,4.0,10.0,35,0.00,,,0.00,meteohub,2013-05-14 16:57:00,
2013-05-14 13:02:00,77.7,47.1,30.25,ENE,60,2.0,10.0,34,0.00,,,0.00,meteohub,2013-05-14 17:02:00,
2013-05-14 13:07:00,78.1,46.6,30.25,ENE,71,5.0,10.0,33,0.00,,,0.00,meteohub,2013-05-14 17:07:00,
2013-05-14 13:12:00,77.9,48.0,30.24,ENE,75,0.0,7.0,35,0.00,,,0.00,meteohub,2013-05-14 17:12:00,
2013-05-14 13:17:00,78.3,52.7,30.24,ESE,110,2.0,8.0,41,0.00,,,0.00,meteohub,2013-05-14 17:17:00,
2013-05-14 13:22:00,78.6,47.8,30.24,East,86,4.0,8.0,34,0.00,,,0.00,meteohub,2013-05-14 17:22:00,
2013-05-14 13:27:00,78.6,48.7,30.24,East,101,6.0,8.0,35,0.00,,,0.00,meteohub,2013-05-14 17:27:00,
2013-05-14 13:32:00,78.4,49.3,30.24,East,84,4.0,9.0,36,0.00,,,0.00,meteohub,2013-05-14 17:32:00,
2013-05-14 13:37:00,78.4,50.0,30.24,SSE,150,0.0,9.0,37,0.00,,,0.00,meteohub,2013-05-14 17:37:00,
2013-05-14 13:42:00,78.3,46.8,30.24,SE,142,4.0,9.0,33,0.00,,,0.00,meteohub,2013-05-14 17:42:00,
2013-05-14 13:47:00,78.1,51.1,30.23,North,5,4.0,9.0,39,0.00,,,0.00,meteohub,2013-05-14 17:47:00,
2013-05-14 13:52:00,77.9,52.3,30.23,ESE,116,1.0,9.0,41,0.00,,,0.00,meteohub,2013-05-14 17:52:00,
2013-05-14 13:57:00,77.7,47.8,30.23,SE,138,7.0,9.0,35,0.00,,,0.00,meteohub,2013-05-14 17:57:00,
2013-05-14 14:02:00,77.7,52.2,30.23,ENE,69,4.0,9.0,41,0.00,,,0.00,meteohub,2013-05-14 18:02:00,
2013-05-14 14:07:00,78.3,48.4,30.23,ESE,104,4.0,9.0,35,0.00,,,0.00,meteohub,2013-05-14 18:07:00,
2013-05-14 14:12:00,77.7,50.0,30.23,NE,53,3.0,9.0,38,0.00,,,0.00,meteohub,2013-05-14 18:12:00,
2013-05-14 14:17:00,78.1,49.6,30.23,NE,53,0.0,9.0,37,0.00,,,0.00,meteohub,2013-05-14 18:17:00,
2013-05-14 14:22:00,77.9,49.5,30.22,East,88,7.0,10.0,37,0.00,,,0.00,meteohub,2013-05-14 18:22:00,
2013-05-14 14:27:00,77.9,50.2,30.22,East,95,6.0,10.0,38,0.00,,,0.00,meteohub,2013-05-14 18:27:00,
2013-05-14 14:32:00,77.4,51.8,30.22,SSE,148,2.0,10.0,41,0.00,,,0.00,meteohub,2013-05-14 18:32:00,
2013-05-14 14:37:00,77.0,49.5,30.22,SSE,157,2.0,10.0,38,0.00,,,0.00,meteohub,2013-05-14 18:37:00,
2013-05-14 14:42:00,77.4,49.1,30.22,NNE,32,4.0,10.0,37,0.00,,,0.00,meteohub,2013-05-14 18:42:00,
2013-05-14 14:47:00,78.1,48.9,30.22,East,101,4.0,10.0,36,0.00,,,0.00,meteohub,2013-05-14 18:47:00,
2013-05-14 14:52:00,78.3,49.8,30.22,ENE,60,4.0,9.0,37,0.00,,,0.00,meteohub,2013-05-14 18:52:00,
2013-05-14 14:57:00,78.1,50.4,30.22,ESE,109,4.0,9.0,38,0.00,,,0.00,meteohub,2013-05-14 18:57:00,
2013-05-14 15:02:00,77.9,52.9,30.21,SSE,154,8.0,10.0,42,0.00,,,0.00,meteohub,2013-05-14 19:02:00,
2013-05-14 15:07:00,77.4,47.5,30.22,NE,43,5.0,11.0,35,0.00,,,0.00,meteohub,2013-05-14 19:07:00,
2013-05-14 15:12:00,77.5,55.0,30.21,ENE,62,1.0,11.0,46,0.00,,,0.00,meteohub,2013-05-14 19:12:00,
2013-05-14 15:17:00,77.7,47.8,30.21,NE,53,5.0,11.0,35,0.00,,,0.00,meteohub,2013-05-14 19:17:00,
2013-05-14 15:22:00,77.5,47.7,30.21,ENE,65,3.0,8.0,35,0.00,,,0.00,meteohub,2013-05-14 19:22:00,
2013-05-14 15:27:00,77.9,49.5,30.21,ENE,64,0.0,9.0,37,0.00,,,0.00,meteohub,2013-05-14 19:27:00,
2013-05-14 15:32:00,78.1,50.4,30.21,East,79,0.0,9.0,38,0.00,,,0.00,meteohub,2013-05-14 19:32:00,
2013-05-14 15:37:00,78.4,50.0,30.21,ENE,66,0.0,10.0,37,0.00,,,0.00,meteohub,2013-05-14 19:37:00,
2013-05-14 15:42:00,78.3,51.3,30.21,East,98,2.0,12.0,39,0.00,,,0.00,meteohub,2013-05-14 19:42:00,
2013-05-14 15:47:00,78.1,51.1,30.20,East,89,1.0,12.0,39,0.00,,,0.00,meteohub,2013-05-14 19:47:00,
2013-05-14 15:52:00,78.1,52.5,30.20,East,79,4.0,11.0,41,0.00,,,0.00,meteohub,2013-05-14 19:52:00,
2013-05-14 15:57:00,78.3,49.8,30.20,East,90,7.0,11.0,37,0.00,,,0.00,meteohub,2013-05-14 19:57:00,
2013-05-14 16:02:00,78.3,50.5,30.20,SE,132,4.0,10.0,38,0.00,,,0.00,meteohub,2013-05-14 20:02:00,
2013-05-14 16:07:00,78.1,51.1,30.20,ESE,111,3.0,10.0,39,0.00,,,0.00,meteohub,2013-05-14 20:07:00,
2013-05-14 16:12:00,78.1,51.1,30.20,East,82,0.0,10.0,39,0.00,,,0.00,meteohub,2013-05-14 20:12:00,
2013-05-14 16:17:00,78.1,50.4,30.19,ENE,65,2.0,10.0,38,0.00,,,0.00,meteohub,2013-05-14 20:17:00,
2013-05-14 16:27:00,77.7,48.6,30.19,ESE,111,1.0,10.0,36,0.00,,,0.00,meteohub,2013-05-14 20:27:00,
2013-05-14 16:32:00,77.4,51.8,30.19,East,84,0.0,10.0,41,0.00,,,0.00,meteohub,2013-05-14 20:32:00,
2013-05-14 16:37:00,77.4,49.8,30.19,ENE,76,3.0,10.0,38,0.00,,,0.00,meteohub,2013-05-14 20:37:00,
2013-05-14 16:42:00,77.5,50.0,30.19,NE,47,4.0,9.0,38,0.00,,,0.00,meteohub,2013-05-14 20:42:00,
2013-05-14 16:47:00,77.4,51.1,30.19,ENE,57,0.0,10.0,40,0.00,,,0.00,meteohub,2013-05-14 20:47:00,
2013-05-14 16:52:00,77.4,51.1,30.19,NE,55,3.0,10.0,40,0.00,,,0.00,meteohub,2013-05-14 20:52:00,
2013-05-14 16:57:00,77.5,50.5,30.19,ENE,74,0.0,10.0,39,0.00,,,0.00,meteohub,2013-05-14 20:57:00,
2013-05-14 17:02:00,77.9,50.2,30.19,NE,49,2.0,10.0,38,0.00,,,0.00,meteohub,2013-05-14 21:02:00,
2013-05-14 17:07:00,77.7,48.6,30.19,NE,45,5.0,10.0,36,0.00,,,0.00,meteohub,2013-05-14 21:07:00,
2013-05-14 17:12:00,77.7,49.5,30.19,ENE,64,4.0,10.0,37,0.00,,,0.00,meteohub,2013-05-14 21:12:00,
2013-05-14 17:17:00,77.7,50.0,30.19,East,86,2.0,10.0,38,0.00,,,0.00,meteohub,2013-05-14 21:17:00,
2013-05-14 17:22:00,77.4,51.1,30.19,East,82,4.0,10.0,40,0.00,,,0.00,meteohub,2013-05-14 21:22:00,
2013-05-14 17:27:00,77.2,52.3,30.19,East,81,1.0,8.0,42,0.00,,,0.00,meteohub,2013-05-14 21:27:00,
2013-05-14 17:32:00,77.0,52.2,30.19,ESE,109,6.0,8.0,42,0.00,,,0.00,meteohub,2013-05-14 21:32:00,
2013-05-14 17:37:00,76.6,48.4,30.19,East,93,8.0,8.0,37,0.00,,,0.00,meteohub,2013-05-14 21:37:00,
2013-05-14 17:42:00,76.3,50.2,30.19,SE,138,5.0,10.0,40,0.00,,,0.00,meteohub,2013-05-14 21:42:00,
2013-05-14 17:47:00,75.9,53.1,30.19,SE,137,3.0,10.0,45,0.00,,,0.00,meteohub,2013-05-14 21:47:00,
2013-05-14 17:52:00,75.4,49.5,30.19,SE,130,1.0,10.0,40,0.00,,,0.00,meteohub,2013-05-14 21:52:00,
2013-05-14 17:57:00,75.2,48.6,30.18,NE,56,4.0,9.0,39,0.00,,,0.00,meteohub,2013-05-14 21:57:00,
2013-05-14 18:02:00,75.0,51.1,30.18,SE,132,4.0,9.0,43,0.00,,,0.00,meteohub,2013-05-14 22:02:00,
2013-05-14 18:07:00,74.8,48.9,30.19,SE,126,2.0,9.0,40,0.00,,,0.00,meteohub,2013-05-14 22:07:00,
2013-05-14 18:12:00,74.7,49.5,30.18,SE,141,5.0,9.0,41,0.00,,,0.00,meteohub,2013-05-14 22:12:00,
2013-05-14 18:17:00,74.7,50.7,30.18,East,93,9.0,9.0,43,0.00,,,0.00,meteohub,2013-05-14 22:17:00,
2013-05-14 18:22:00,74.5,47.8,30.18,East,90,3.0,9.0,39,0.00,,,0.00,meteohub,2013-05-14 22:22:00,
2013-05-14 18:27:00,74.3,50.4,30.18,ESE,110,1.0,9.0,43,0.00,,,0.00,meteohub,2013-05-14 22:27:00,
2013-05-14 18:32:00,74.1,50.2,30.18,SSE,149,3.0,9.0,43,0.00,,,0.00,meteohub,2013-05-14 22:32:00,
2013-05-14 18:37:00,73.9,48.7,30.18,East,98,1.0,10.0,41,0.00,,,0.00,meteohub,2013-05-14 22:37:00,
2013-05-14 18:42:00,73.8,49.8,30.18,ESE,114,4.0,10.0,43,0.00,,,0.00,meteohub,2013-05-14 22:42:00,
2013-05-14 18:47:00,73.6,48.4,30.18,East,95,2.0,10.0,41,0.00,,,0.00,meteohub,2013-05-14 22:47:00,
2013-05-14 18:52:00,73.4,49.5,30.18,SE,146,0.0,9.0,43,0.00,,,0.00,meteohub,2013-05-14 22:52:00,
2013-05-14 19:02:00,73.0,50.4,30.18,SE,138,0.0,9.0,45,0.00,,,0.00,meteohub,2013-05-14 23:02:00,
2013-05-14 19:07:00,72.7,46.9,30.17,ESE,117,0.0,8.0,40,0.00,,,0.00,meteohub,2013-05-14 23:07:00,
2013-05-14 19:12:00,72.3,49.1,30.18,ESE,123,2.0,8.0,44,0.00,,,0.00,meteohub,2013-05-14 23:12:00,
2013-05-14 19:17:00,72.1,48.4,30.18,ESE,103,4.0,6.0,43,0.00,,,0.00,meteohub,2013-05-14 23:17:00,
2013-05-14 19:22:00,71.8,49.3,30.17,ESE,103,2.0,7.0,45,0.00,,,0.00,meteohub,2013-05-14 23:22:00,
2013-05-14 19:27:00,71.2,51.6,30.18,ESE,103,0.0,7.0,50,0.00,,,0.00,meteohub,2013-05-14 23:27:00,
2013-05-14 19:32:00,70.9,50.7,30.18,ESE,103,0.0,7.0,49,0.00,,,0.00,meteohub,2013-05-14 23:32:00,
2013-05-14 19:37:00,70.3,52.9,30.18,ESE,103,1.0,6.0,54,0.00,,,0.00,meteohub,2013-05-14 23:37:00,
2013-05-14 19:42:00,70.0,52.0,30.18,ESE,103,3.0,4.0,53,0.00,,,0.00,meteohub,2013-05-14 23:42:00,
2013-05-14 19:47:00,69.6,50.7,30.17,ESE,102,0.0,4.0,51,0.00,,,0.00,meteohub,2013-05-14 23:47:00,
2013-05-14 19:52:00,69.3,52.0,30.18,ESE,102,0.0,4.0,54,0.00,,,0.00,meteohub,2013-05-14 23:52:00,
2013-05-14 19:57:00,69.1,51.8,30.18,ESE,102,0.0,4.0,54,0.00,,,0.00,meteohub,2013-05-14 23:57:00,
2013-05-14 20:02:00,68.7,52.9,30.18,ESE,102,2.0,4.0,57,0.00,,,0.00,meteohub,2013-05-15 00:02:00,
2013-05-14 20:07:00,68.4,52.5,30.18,ESE,102,0.0,3.0,57,0.00,,,0.00,meteohub,2013-05-15 00:07:00,
2013-05-14 20:12:00,68.0,52.2,30.18,ESE,102,0.0,3.0,57,0.00,,,0.00,meteohub,2013-05-15 00:12:00,
2013-05-14 20:17:00,67.6,52.9,30.18,ESE,102,0.0,3.0,59,0.00,,,0.00,meteohub,2013-05-15 00:17:00,
2013-05-14 20:22:00,67.3,53.4,30.18,ESE,102,0.0,0.0,61,0.00,,,0.00,meteohub,2013-05-15 00:22:00,
2013-05-14 20:27:00,66.7,53.8,30.18,ESE,102,0.0,0.0,63,0.00,,,0.00,meteohub,2013-05-15 00:27:00,
2013-05-14 20:32:00,66.2,53.2,30.18,ESE,102,0.0,0.0,63,0.00,,,0.00,meteohub,2013-05-15 00:32:00,
2013-05-14 20:37:00,65.7,52.7,30.18,ESE,102,0.0,0.0,63,0.00,,,0.00,meteohub,2013-05-15 00:37:00,
2013-05-14 20:42:00,65.1,54.0,30.19,ESE,102,0.0,0.0,67,0.00,,,0.00,meteohub,2013-05-15 00:42:00,
2013-05-14 20:47:00,64.8,53.6,30.19,ESE,102,0.0,0.0,67,0.00,,,0.00,meteohub,2013-05-15 00:47:00,
2013-05-14 20:52:00,64.2,53.4,30.19,ESE,102,0.0,0.0,68,0.00,,,0.00,meteohub,2013-05-15 00:52:00,
2013-05-14 20:57:00,63.9,54.0,30.19,ESE,102,0.0,0.0,70,0.00,,,0.00,meteohub,2013-05-15 00:57:00,
2013-05-14 21:02:00,63.3,53.8,30.19,ESE,102,0.0,0.0,71,0.00,,,0.00,meteohub,2013-05-15 01:02:00,
2013-05-14 21:07:00,63.0,53.4,30.19,ESE,102,0.0,0.0,71,0.00,,,0.00,meteohub,2013-05-15 01:07:00,
2013-05-14 21:12:00,62.4,53.2,30.19,ESE,102,0.0,0.0,72,0.00,,,0.00,meteohub,2013-05-15 01:12:00,
2013-05-14 21:17:00,62.1,52.9,30.19,ESE,102,0.0,0.0,72,0.00,,,0.00,meteohub,2013-05-15 01:17:00,
2013-05-14 21:22:00,61.7,52.9,30.19,ESE,102,0.0,0.0,73,0.00,,,0.00,meteohub,2013-05-15 01:22:00,
2013-05-14 21:27:00,61.3,53.1,30.19,ESE,102,0.0,0.0,74,0.00,,,0.00,meteohub,2013-05-15 01:27:00,
2013-05-14 21:32:00,61.2,52.9,30.20,ESE,102,0.0,0.0,74,0.00,,,0.00,meteohub,2013-05-15 01:32:00,
2013-05-14 21:37:00,61.0,53.1,30.20,ESE,102,0.0,0.0,75,0.00,,,0.00,meteohub,2013-05-15 01:37:00,
2013-05-14 21:42:00,60.6,53.8,30.20,ESE,102,0.0,0.0,78,0.00,,,0.00,meteohub,2013-05-15 01:42:00,
2013-05-14 21:47:00,60.4,53.2,30.20,ESE,102,0.0,0.0,77,0.00,,,0.00,meteohub,2013-05-15 01:47:00,
2013-05-14 21:52:00,60.3,53.1,30.20,ESE,102,0.0,0.0,77,0.00,,,0.00,meteohub,2013-05-15 01:52:00,
2013-05-14 21:57:00,60.1,53.2,30.20,ESE,102,0.0,0.0,78,0.00,,,0.00,meteohub,2013-05-15 01:57:00,
2013-05-14 22:02:00,59.7,52.5,30.20,ESE,102,0.0,0.0,77,0.00,,,0.00,meteohub,2013-05-15 02:02:00,
2013-05-14 22:07:00,59.5,52.7,30.20,ESE,102,0.0,0.0,78,0.00,,,0.00,meteohub,2013-05-15 02:07:00,
2013-05-14 22:12:00,59.4,52.9,30.21,ESE,102,0.0,0.0,79,0.00,,,0.00,meteohub,2013-05-15 02:12:00,
2013-05-14 22:17:00,59.2,52.7,30.21,ESE,102,0.0,0.0,79,0.00,,,0.00,meteohub,2013-05-15 02:17:00,
2013-05-14 22:22:00,58.8,52.7,30.21,ESE,102,0.0,0.0,80,0.00,,,0.00,meteohub,2013-05-15 02:22:00,
2013-05-14 22:27:00,58.6,52.5,30.21,ESE,102,0.0,0.0,80,0.00,,,0.00,meteohub,2013-05-15 02:27:00,
2013-05-14 22:32:00,58.5,53.1,30.21,ESE,102,0.0,0.0,82,0.00,,,0.00,meteohub,2013-05-15 02:32:00,
2013-05-14 22:37:00,58.3,52.9,30.21,ESE,102,0.0,0.0,82,0.00,,,0.00,meteohub,2013-05-15 02:37:00,
2013-05-14 22:42:00,57.9,52.7,30.21,ESE,102,0.0,0.0,83,0.00,,,0.00,meteohub,2013-05-15 02:42:00,
2013-05-14 22:47:00,57.7,52.9,30.21,ESE,102,0.0,0.0,84,0.00,,,0.00,meteohub,2013-05-15 02:47:00,
2013-05-14 22:52:00,57.6,53.1,30.21,ESE,102,0.0,0.0,85,0.00,,,0.00,meteohub,2013-05-15 02:52:00,
2013-05-14 22:57:00,57.6,53.1,30.21,ESE,102,0.0,0.0,85,0.00,,,0.00,meteohub,2013-05-15 02:57:00,
2013-05-14 23:02:00,57.6,53.4,30.21,ESE,102,0.0,0.0,86,0.00,,,0.00,meteohub,2013-05-15 03:02:00,
2013-05-14 23:07:00,57.6,53.4,30.22,ESE,102,0.0,0.0,86,0.00,,,0.00,meteohub,2013-05-15 03:07:00,
2013-05-14 23:12:00,57.4,53.6,30.22,ESE,102,0.0,0.0,87,0.00,,,0.00,meteohub,2013-05-15 03:12:00,
2013-05-14 23:17:00,57.4,53.6,30.22,ESE,102,0.0,0.0,87,0.00,,,0.00,meteohub,2013-05-15 03:17:00,
2013-05-14 23:22:00,57.2,53.4,30.22,ESE,102,0.0,0.0,87,0.00,,,0.00,meteohub,2013-05-15 03:22:00,
2013-05-14 23:27:00,57.2,53.1,30.22,ESE,102,0.0,0.0,86,0.00,,,0.00,meteohub,2013-05-15 03:27:00,
2013-05-14 23:32:00,57.0,52.9,30.22,ESE,102,0.0,0.0,86,0.00,,,0.00,meteohub,2013-05-15 03:32:00,
2013-05-14 23:37:00,57.0,53.4,30.22,ESE,102,0.0,0.0,88,0.00,,,0.00,meteohub,2013-05-15 03:37:00,
2013-05-14 23:42:00,56.8,53.2,30.22,ESE,102,0.0,0.0,88,0.00,,,0.00,meteohub,2013-05-15 03:42:00,
2013-05-14 23:47:00,56.8,53.2,30.22,ESE,102,0.0,0.0,88,0.00,,,0.00,meteohub,2013-05-15 03:47:00,
2013-05-14 23:52:00,56.7,53.4,30.22,ESE,102,0.0,0.0,89,0.00,,,0.00,meteohub,2013-05-15 03:52:00,
2013-05-14 23:57:00,56.7,53.8,30.22,ESE,102,0.0,0.0,90,0.00,,,0.00,meteohub,2013-05-15 03:57:00,